Simultaneous Nadir Overpasses (SNOs) Predictions

Prediction of SNOs between GOES-17 and NPP Satellite Orbit:

Table of predicted SNOs for the next 14.0 days since TLE Epoch: 10/8/2022
Index Date Time (GOES-17) GOES-17 Lat,Lon NPP Lat,Lon Distance(km) Time Diff (sec)
1 10/08/2022 22:47:37 -0.04,-137.32 -0.78,-140.71 386.77 80
2 10/09/2022 22:31:32 -0.04,-137.31 0.18,-136.17 129.42 80
3 10/11/2022 10:50:40 0.04,-137.31 0.96,-141.45 471.38 80
4 10/12/2022 10:34:36 0.04,-137.30 -0.07,-136.92 44.44 80
5 10/14/2022 22:35:06 -0.04,-137.27 -0.13,-137.68 47.01 80
6 10/15/2022 22:19:02 -0.04,-137.25 0.90,-133.15 468.08 80
7 10/17/2022 10:38:09 0.03,-137.23 0.29,-138.41 134.31 80
8 10/18/2022 10:22:05 0.03,-137.22 -0.74,-133.88 380.41 80
9 10/19/2022 22:41:20 -0.02,-137.18 -0.48,-139.18 227.52 80
10 10/20/2022 22:25:16 -0.02,-137.16 0.56,-134.65 287.05 80
